Time,TemperatureF,DewpointF,PressureIn,WindDirection,WindDirectionDegrees,WindSpeedMPH,WindSpeedGustMPH,Humidity,HourlyPrecipIn,Conditions,Clouds,dailyrainin,SoftwareType,DateUTC
2013-03-28 00:01:00,28.9,-99.9,29.01,NNE,22,2.0,-999.0,-999,-99.99,,,-99.99,,2013-03-28 00:01:00,
2013-03-28 00:07:00,28.9,-99.9,29.01,West,270,2.0,-999.0,-999,-99.99,,,-99.99,,2013-03-28 00:07:00,
2013-03-28 00:13:00,28.9,-99.9,29.01,SSE,157,3.0,-999.0,-999,-99.99,,,-99.99,,2013-03-28 00:13:00,
2013-03-28 00:20:00,28.9,-99.9,29.01,SE,135,4.0,-999.0,-999,-99.99,,,-99.99,,2013-03-28 00:20:00,
2013-03-28 00:26:00,29.0,-99.9,29.01,East,90,0.0,-999.0,-999,-99.99,,,-99.99,,2013-03-28 00:26:00,
2013-03-28 00:33:00,29.0,-99.9,29.01,ESE,112,3.0,-999.0,-999,-99.99,,,-99.99,,2013-03-28 00:33:00,
2013-03-28 00:39:00,29.0,-99.9,29.01,SE,135,4.0,-999.0,-999,-99.99,,,-99.99,,2013-03-28 00:39:00,
2013-03-28 00:48:00,29.1,-99.9,29.01,SE,135,4.0,-999.0,-999,-99.99,,,-99.99,,2013-03-28 00:48:00,
2013-03-28 00:54:00,29.1,-99.9,29.01,ESE,112,2.0,-999.0,-999,-99.99,,,-99.99,,2013-03-28 00:54:00,
2013-03-28 01:00:00,29.2,-99.9,29.01,ENE,67,4.0,-999.0,-999,-99.99,,,-99.99,,2013-03-28 01:00:00,
2013-03-28 01:07:00,29.2,-99.9,29.01,ESE,112,7.0,-999.0,-999,-99.99,,,-99.99,,2013-03-28 01:07:00,
2013-03-28 01:13:00,29.2,-99.9,29.01,SSW,202,6.0,-999.0,-999,-99.99,,,-99.99,,2013-03-28 01:13:00,
2013-03-28 01:20:00,29.1,-99.9,29.01,SE,135,3.0,-999.0,-999,-99.99,,,-99.99,,2013-03-28 01:20:00,
2013-03-28 01:25:00,29.1,-99.9,29.00,NNE,22,3.0,-999.0,-999,-99.99,,,-99.99,,2013-03-28 01:25:00,
2013-03-28 01:31:00,29.1,-99.9,29.00,SSE,157,7.0,-999.0,-999,-99.99,,,-99.99,,2013-03-28 01:31:00,
2013-03-28 01:37:00,29.1,-99.9,29.00,ENE,67,-999.0,-999.0,-999,-99.99,,,-99.99,,2013-03-28 01:37:00,
2013-03-28 01:43:00,29.1,-99.9,29.00,SSW,202,4.0,-999.0,-999,-99.99,,,-99.99,,2013-03-28 01:43:00,
2013-03-28 01:49:00,29.1,-99.9,29.00,East,90,8.0,-999.0,-999,-99.99,,,-99.99,,2013-03-28 01:49:00,
2013-03-28 01:55:00,29.0,-99.9,29.00,East,90,10.0,-999.0,-999,-99.99,,,-99.99,,2013-03-28 01:55:00,
2013-03-28 02:02:00,29.0,-99.9,29.00,SW,225,4.0,-999.0,-999,-99.99,,,-99.99,,2013-03-28 02:02:00,
2013-03-28 02:08:00,29.0,-99.9,29.00,SE,135,5.0,-999.0,-999,-99.99,,,-99.99,,2013-03-28 02:08:00,
2013-03-28 02:14:00,29.0,-99.9,29.00,SE,135,2.0,-999.0,-999,-99.99,,,-99.99,,2013-03-28 02:14:00,
2013-03-28 02:20:00,29.0,-99.9,29.00,South,180,7.0,-999.0,-999,-99.99,,,-99.99,,2013-03-28 02:20:00,
2013-03-28 02:27:00,29.1,-99.9,29.00,SE,135,2.0,-999.0,-999,-99.99,,,-99.99,,2013-03-28 02:27:00,
2013-03-28 02:33:00,29.1,-99.9,29.00,ESE,112,3.0,-999.0,-999,-99.99,,,-99.99,,2013-03-28 02:33:00,
2013-03-28 02:39:00,29.0,-99.9,29.00,ENE,67,2.0,-999.0,-999,-99.99,,,-99.99,,2013-03-28 02:39:00,
2013-03-28 02:45:00,29.0,-99.9,29.00,ESE,112,2.0,-999.0,-999,-99.99,,,-99.99,,2013-03-28 02:45:00,
2013-03-28 02:52:00,29.0,-99.9,29.00,SSE,157,3.0,-999.0,-999,-99.99,,,-99.99,,2013-03-28 02:52:00,
2013-03-28 02:58:00,29.0,-99.9,29.00,SW,225,4.0,-999.0,-999,-99.99,,,-99.99,,2013-03-28 02:58:00,
2013-03-28 03:04:00,29.0,-99.9,29.00,South,180,5.0,-999.0,-999,-99.99,,,-99.99,,2013-03-28 03:04:00,
2013-03-28 03:10:00,29.0,-99.9,29.00,SSW,202,6.0,-999.0,-999,-99.99,,,-99.99,,2013-03-28 03:10:00,
2013-03-28 03:17:00,28.9,-99.9,29.00,SSE,157,7.0,-999.0,-999,-99.99,,,-99.99,,2013-03-28 03:17:00,
2013-03-28 03:23:00,28.9,-99.9,29.00,South,180,8.0,-999.0,-999,-99.99,,,-99.99,,2013-03-28 03:23:00,
2013-03-28 03:29:00,28.9,-99.9,28.99,SW,225,5.0,-999.0,-999,-99.99,,,-99.99,,2013-03-28 03:29:00,
2013-03-28 03:35:00,28.7,-99.9,28.99,East,90,5.0,-999.0,-999,-99.99,,,-99.99,,2013-03-28 03:35:00,
2013-03-28 03:41:00,28.7,-99.9,28.99,ESE,112,-999.0,-999.0,-999,-99.99,,,-99.99,,2013-03-28 03:41:00,
2013-03-28 03:47:00,28.9,-99.9,28.99,ESE,112,3.0,-999.0,-999,-99.99,,,-99.99,,2013-03-28 03:47:00,
2013-03-28 03:53:00,29.0,-99.9,28.99,SE,135,3.0,-999.0,-999,-99.99,,,-99.99,,2013-03-28 03:53:00,
2013-03-28 03:59:00,29.1,-99.9,28.99,NNW,337,4.0,-999.0,-999,-99.99,,,-99.99,,2013-03-28 03:59:00,
2013-03-28 04:01:00,29.1,-99.9,28.99,SSW,202,2.0,-999.0,-999,-99.99,,,-99.99,,2013-03-28 04:01:00,
2013-03-28 04:07:00,29.1,-99.9,28.99,ESE,112,-999.0,-999.0,-999,-99.99,,,-99.99,,2013-03-28 04:07:00,
2013-03-28 04:09:00,29.1,-99.9,28.99,ESE,112,5.0,-999.0,-999,-99.99,,,-99.99,,2013-03-28 04:09:00,
2013-03-28 04:13:00,29.1,-99.9,28.99,NNE,22,4.0,-999.0,-999,-99.99,,,-99.99,,2013-03-28 04:13:00,
2013-03-28 04:15:00,29.2,-99.9,28.99,ESE,112,3.0,-999.0,-999,-99.99,,,-99.99,,2013-03-28 04:15:00,
2013-03-28 04:21:00,29.0,-99.9,28.99,West,270,2.0,-999.0,-999,-99.99,,,-99.99,,2013-03-28 04:21:00,
2013-03-28 04:28:00,28.9,-99.9,28.99,SE,135,3.0,-999.0,-999,-99.99,,,-99.99,,2013-03-28 04:28:00,
2013-03-28 04:34:00,28.9,-99.9,28.99,ESE,112,2.0,-999.0,-999,-99.99,,,-99.99,,2013-03-28 04:34:00,
2013-03-28 04:40:00,28.7,-99.9,28.99,ENE,67,4.0,-999.0,-999,-99.99,,,-99.99,,2013-03-28 04:40:00,
2013-03-28 04:46:00,28.7,-99.9,28.99,ESE,112,3.0,-999.0,-999,-99.99,,,-99.99,,2013-03-28 04:46:00,
2013-03-28 04:53:00,28.7,-99.9,28.99,West,270,1.0,-999.0,-999,-99.99,,,-99.99,,2013-03-28 04:53:00,
2013-03-28 04:59:00,28.7,-99.9,28.99,WNW,292,5.0,-999.0,-999,-99.99,,,-99.99,,2013-03-28 04:59:00,
2013-03-28 05:05:00,28.7,-99.9,28.99,SSE,157,5.0,-999.0,-999,-99.99,,,-99.99,,2013-03-28 05:05:00,
2013-03-28 05:11:00,28.9,-99.9,28.99,ENE,67,3.0,-999.0,-999,-99.99,,,-99.99,,2013-03-28 05:11:00,
2013-03-28 05:18:00,28.7,-99.9,29.00,SE,135,2.0,-999.0,-999,-99.99,,,-99.99,,2013-03-28 05:18:00,
2013-03-28 05:24:00,28.6,-99.9,29.00,South,180,4.0,-999.0,-999,-99.99,,,-99.99,,2013-03-28 05:24:00,
2013-03-28 05:31:00,28.5,-99.9,29.00,NNE,22,-999.0,-999.0,-999,-99.99,,,-99.99,,2013-03-28 05:31:00,
2013-03-28 05:37:00,28.2,-99.9,29.00,East,90,1.0,-999.0,-999,-99.99,,,-99.99,,2013-03-28 05:37:00,
2013-03-28 05:43:00,27.8,-99.9,29.00,NNE,22,1.0,-999.0,-999,-99.99,,,-99.99,,2013-03-28 05:43:00,
2013-03-28 05:50:00,27.2,-99.9,29.00,ENE,67,-999.0,-999.0,-999,-99.99,,,-99.99,,2013-03-28 05:50:00,
2013-03-28 05:58:00,26.4,-99.9,29.00,North,0,1.0,-999.0,-999,-99.99,,,-99.99,,2013-03-28 05:58:00,
2013-03-28 06:04:00,26.1,-99.9,29.00,NNE,22,0.0,-999.0,-999,-99.99,,,-99.99,,2013-03-28 06:04:00,
2013-03-28 06:10:00,26.5,-99.9,29.00,NE,45,0.0,-999.0,-999,-99.99,,,-99.99,,2013-03-28 06:10:00,
2013-03-28 06:19:00,26.4,-99.9,29.00,East,90,0.0,-999.0,-999,-99.99,,,-99.99,,2013-03-28 06:19:00,
2013-03-28 06:25:00,26.6,-99.9,29.00,North,0,0.0,-999.0,-999,-99.99,,,-99.99,,2013-03-28 06:25:00,
2013-03-28 06:32:00,27.0,-99.9,29.00,NNW,337,0.0,-999.0,-999,-99.99,,,-99.99,,2013-03-28 06:32:00,
2013-03-28 06:38:00,27.5,-99.9,29.01,NE,45,0.0,-999.0,-999,-99.99,,,-99.99,,2013-03-28 06:38:00,
2013-03-28 06:44:00,28.0,-99.9,29.01,North,0,0.0,-999.0,-999,-99.99,,,-99.99,,2013-03-28 06:44:00,
2013-03-28 06:53:00,31.0,-99.9,29.00,ESE,112,0.0,-999.0,-999,-99.99,,,-99.99,,2013-03-28 06:53:00,
2013-03-28 06:59:00,33.7,-99.9,29.00,SSW,202,2.0,-999.0,-999,-99.99,,,-99.99,,2013-03-28 06:59:00,
2013-03-28 07:05:00,34.9,-99.9,29.00,SSW,202,3.0,-999.0,-999,-99.99,,,-99.99,,2013-03-28 07:05:00,
2013-03-28 07:13:00,34.0,-99.9,29.00,ESE,112,2.0,-999.0,-999,-99.99,,,-99.99,,2013-03-28 07:13:00,
2013-03-28 07:21:00,32.9,-99.9,29.00,SSE,157,-999.0,-999.0,-999,-99.99,,,-99.99,,2013-03-28 07:21:00,
2013-03-28 07:27:00,33.5,-99.9,29.00,South,180,2.0,-999.0,-999,-99.99,,,-99.99,,2013-03-28 07:27:00,
2013-03-28 07:34:00,33.7,-99.9,29.00,ESE,112,-999.0,-999.0,-999,-99.99,,,-99.99,,2013-03-28 07:34:00,
2013-03-28 07:40:00,33.0,-99.9,29.00,South,180,4.0,-999.0,-999,-99.99,,,-99.99,,2013-03-28 07:40:00,
2013-03-28 07:46:00,31.9,-99.9,29.01,SSE,157,3.0,-999.0,-999,-99.99,,,-99.99,,2013-03-28 07:46:00,
2013-03-28 07:53:00,31.2,-99.9,29.01,NNW,337,4.0,-999.0,-999,-99.99,,,-99.99,,2013-03-28 07:53:00,
2013-03-28 07:59:00,31.2,-99.9,29.01,SW,225,5.0,-999.0,-999,-99.99,,,-99.99,,2013-03-28 07:59:00,
2013-03-28 08:05:00,32.7,-99.9,29.00,SW,225,5.0,-999.0,-999,-99.99,,,-99.99,,2013-03-28 08:05:00,
2013-03-28 08:11:00,36.4,-99.9,29.01,ENE,67,5.0,-999.0,-999,-99.99,,,-99.99,,2013-03-28 08:11:00,
2013-03-28 08:18:00,37.8,-99.9,29.01,ESE,112,7.0,-999.0,-999,-99.99,,,-99.99,,2013-03-28 08:18:00,
2013-03-28 08:24:00,36.3,-99.9,29.01,NE,45,5.0,-999.0,-999,-99.99,,,-99.99,,2013-03-28 08:24:00,
2013-03-28 08:30:00,35.2,-99.9,29.01,SW,225,8.0,-999.0,-999,-99.99,,,-99.99,,2013-03-28 08:30:00,
2013-03-28 08:39:00,33.6,-99.9,29.01,WSW,247,11.0,-999.0,-999,-99.99,,,-99.99,,2013-03-28 08:39:00,
2013-03-28 08:45:00,32.8,-99.9,29.01,SE,135,12.0,-999.0,-999,-99.99,,,-99.99,,2013-03-28 08:45:00,
2013-03-28 08:53:00,33.0,-99.9,29.01,South,180,11.0,-999.0,-999,-99.99,,,-99.99,,2013-03-28 08:53:00,
2013-03-28 09:00:00,33.1,-99.9,29.01,South,180,11.0,-999.0,-999,-99.99,,,-99.99,,2013-03-28 09:00:00,
2013-03-28 09:08:00,33.3,-99.9,29.01,South,180,14.0,-999.0,-999,-99.99,,,-99.99,,2013-03-28 09:08:00,
2013-03-28 09:14:00,33.2,-99.9,29.01,SSW,202,11.0,-999.0,-999,-99.99,,,-99.99,,2013-03-28 09:14:00,
2013-03-28 09:20:00,33.3,-99.9,29.01,SW,225,-999.0,-999.0,-999,-99.99,,,-99.99,,2013-03-28 09:20:00,
2013-03-28 09:26:00,33.5,-99.9,29.01,SSE,157,9.0,-999.0,-999,-99.99,,,-99.99,,2013-03-28 09:26:00,
2013-03-28 09:32:00,33.8,-99.9,29.01,SSW,202,13.0,-999.0,-999,-99.99,,,-99.99,,2013-03-28 09:32:00,
2013-03-28 09:38:00,33.8,-99.9,29.02,SSW,202,14.0,-999.0,-999,-99.99,,,-99.99,,2013-03-28 09:38:00,
2013-03-28 09:45:00,33.6,-99.9,29.02,South,180,13.0,-999.0,-999,-99.99,,,-99.99,,2013-03-28 09:45:00,
2013-03-28 09:51:00,34.5,-99.9,29.01,SE,135,14.0,-999.0,-999,-99.99,,,-99.99,,2013-03-28 09:51:00,
2013-03-28 09:57:00,36.3,-99.9,29.01,SSE,157,14.0,-999.0,-999,-99.99,,,-99.99,,2013-03-28 09:57:00,
2013-03-28 10:03:00,38.4,-99.9,29.01,SSE,157,14.0,-999.0,-999,-99.99,,,-99.99,,2013-03-28 10:03:00,
2013-03-28 10:10:00,40.5,-99.9,29.01,NNE,22,11.0,-999.0,-999,-99.99,,,-99.99,,2013-03-28 10:10:00,
2013-03-28 10:18:00,40.9,-99.9,29.02,SSE,157,9.0,-999.0,-999,-99.99,,,-99.99,,2013-03-28 10:18:00,
2013-03-28 10:24:00,38.4,-99.9,29.02,SW,225,13.0,-999.0,-999,-99.99,,,-99.99,,2013-03-28 10:24:00,
2013-03-28 10:30:00,37.6,-99.9,29.02,SE,135,12.0,-999.0,-999,-99.99,,,-99.99,,2013-03-28 10:30:00,
2013-03-28 10:37:00,37.7,-99.9,29.02,South,180,11.0,-999.0,-999,-99.99,,,-99.99,,2013-03-28 10:37:00,
2013-03-28 10:43:00,37.2,-99.9,29.02,SSW,202,9.0,-999.0,-999,-99.99,,,-99.99,,2013-03-28 10:43:00,
2013-03-28 10:49:00,36.6,-99.9,29.02,SSE,157,13.0,-999.0,-999,-99.99,,,-99.99,,2013-03-28 10:49:00,
2013-03-28 10:56:00,35.9,-99.9,29.02,WSW,247,11.0,-999.0,-999,-99.99,,,-99.99,,2013-03-28 10:56:00,
2013-03-28 11:02:00,38.4,-99.9,29.02,SSE,157,14.0,-999.0,-999,-99.99,,,-99.99,,2013-03-28 11:02:00,
2013-03-28 11:08:00,40.3,-99.9,29.02,SSW,202,12.0,-999.0,-999,-99.99,,,-99.99,,2013-03-28 11:08:00,
2013-03-28 11:14:00,39.5,-99.9,29.02,SSW,202,17.0,-999.0,-999,-99.99,,,-99.99,,2013-03-28 11:14:00,
2013-03-28 11:21:00,38.1,-99.9,29.02,SSW,202,14.0,-999.0,-999,-99.99,,,-99.99,,2013-03-28 11:21:00,
2013-03-28 11:27:00,37.8,-99.9,29.02,ESE,112,9.0,-999.0,-999,-99.99,,,-99.99,,2013-03-28 11:27:00,
2013-03-28 11:33:00,38.2,-99.9,29.02,SW,225,14.0,-999.0,-999,-99.99,,,-99.99,,2013-03-28 11:33:00,
2013-03-28 11:39:00,37.7,-99.9,29.02,WSW,247,12.0,-999.0,-999,-99.99,,,-99.99,,2013-03-28 11:39:00,
2013-03-28 11:46:00,37.6,-99.9,29.02,SSW,202,9.0,-999.0,-999,-99.99,,,-99.99,,2013-03-28 11:46:00,
2013-03-28 11:52:00,37.7,-99.9,29.02,South,180,9.0,-999.0,-999,-99.99,,,-99.99,,2013-03-28 11:52:00,
2013-03-28 11:58:00,37.8,-99.9,29.02,SSE,157,12.0,-999.0,-999,-99.99,,,-99.99,,2013-03-28 11:58:00,
2013-03-28 12:04:00,37.6,-99.9,29.02,South,180,13.0,-999.0,-999,-99.99,,,-99.99,,2013-03-28 12:04:00,
2013-03-28 12:11:00,37.1,-99.9,29.02,SSW,202,13.0,-999.0,-999,-99.99,,,-99.99,,2013-03-28 12:11:00,
2013-03-28 12:17:00,37.1,-99.9,29.02,SW,225,12.0,-999.0,-999,-99.99,,,-99.99,,2013-03-28 12:17:00,
2013-03-28 12:23:00,36.8,-99.9,29.02,SW,225,15.0,-999.0,-999,-99.99,,,-99.99,,2013-03-28 12:23:00,
2013-03-28 12:29:00,36.7,-99.9,29.02,SE,135,10.0,-999.0,-999,-99.99,,,-99.99,,2013-03-28 12:29:00,
2013-03-28 12:36:00,37.3,-99.9,29.02,WSW,247,12.0,-999.0,-999,-99.99,,,-99.99,,2013-03-28 12:36:00,
2013-03-28 12:42:00,37.2,-99.9,29.02,WSW,247,15.0,-999.0,-999,-99.99,,,-99.99,,2013-03-28 12:42:00,
2013-03-28 12:48:00,37.1,-99.9,29.02,SW,225,12.0,-999.0,-999,-99.99,,,-99.99,,2013-03-28 12:48:00,
2013-03-28 12:54:00,37.3,-99.9,29.02,South,180,13.0,-999.0,-999,-99.99,,,-99.99,,2013-03-28 12:54:00,
2013-03-28 13:01:00,37.0,-99.9,29.02,South,180,13.0,-999.0,-999,-99.99,,,-99.99,,2013-03-28 13:01:00,
2013-03-28 13:07:00,37.0,-99.9,29.02,SSE,157,11.0,-999.0,-999,-99.99,,,-99.99,,2013-03-28 13:07:00,
2013-03-28 13:13:00,37.2,-99.9,29.02,SSE,157,12.0,-999.0,-999,-99.99,,,-99.99,,2013-03-28 13:13:00,
2013-03-28 13:20:00,37.4,-99.9,29.01,SSW,202,11.0,-999.0,-999,-99.99,,,-99.99,,2013-03-28 13:20:00,
2013-03-28 13:26:00,38.0,-99.9,29.01,SSW,202,13.0,-999.0,-999,-99.99,,,-99.99,,2013-03-28 13:26:00,
2013-03-28 13:32:00,38.5,-99.9,29.01,South,180,10.0,-999.0,-999,-99.99,,,-99.99,,2013-03-28 13:32:00,
2013-03-28 13:40:00,39.0,-99.9,29.01,SSW,202,-999.0,-999.0,-999,-99.99,,,-99.99,,2013-03-28 13:40:00,
2013-03-28 13:46:00,38.8,-99.9,29.01,SE,135,12.0,-999.0,-999,-99.99,,,-99.99,,2013-03-28 13:46:00,
2013-03-28 13:52:00,38.6,-99.9,29.01,NNE,22,10.0,-999.0,-999,-99.99,,,-99.99,,2013-03-28 13:52:00,
2013-03-28 13:59:00,38.3,-99.9,29.01,SSW,202,11.0,-999.0,-999,-99.99,,,-99.99,,2013-03-28 13:59:00,
2013-03-28 14:05:00,38.2,-99.9,29.01,SE,135,13.0,-999.0,-999,-99.99,,,-99.99,,2013-03-28 14:05:00,
2013-03-28 14:11:00,38.0,-99.9,29.01,SW,225,6.0,-999.0,-999,-99.99,,,-99.99,,2013-03-28 14:11:00,
2013-03-28 14:18:00,38.4,-99.9,29.01,SW,225,9.0,-999.0,-999,-99.99,,,-99.99,,2013-03-28 14:18:00,
2013-03-28 14:23:00,38.5,-99.9,29.01,WSW,247,-999.0,-999.0,-999,-99.99,,,-99.99,,2013-03-28 14:23:00,
2013-03-28 14:29:00,38.3,-99.9,29.01,South,180,10.0,-999.0,-999,-99.99,,,-99.99,,2013-03-28 14:29:00,
2013-03-28 14:36:00,38.3,-99.9,29.00,ESE,112,-999.0,-999.0,-999,-99.99,,,-99.99,,2013-03-28 14:36:00,
2013-03-28 14:42:00,38.3,-99.9,29.00,WSW,247,8.0,-999.0,-999,-99.99,,,-99.99,,2013-03-28 14:42:00,
2013-03-28 14:49:00,38.3,-99.9,29.00,SW,225,9.0,-999.0,-999,-99.99,,,-99.99,,2013-03-28 14:49:00,
2013-03-28 14:55:00,37.8,-99.9,29.00,SW,225,9.0,-999.0,-999,-99.99,,,-99.99,,2013-03-28 14:55:00,
2013-03-28 15:01:00,37.7,-99.9,29.00,SSW,202,9.0,-999.0,-999,-99.99,,,-99.99,,2013-03-28 15:01:00,
2013-03-28 15:07:00,37.7,-99.9,29.00,South,180,11.0,-999.0,-999,-99.99,,,-99.99,,2013-03-28 15:07:00,
2013-03-28 15:14:00,37.7,-99.9,28.99,ENE,67,8.0,-999.0,-999,-99.99,,,-99.99,,2013-03-28 15:14:00,
2013-03-28 15:20:00,38.1,-99.9,28.99,SE,135,6.0,-999.0,-999,-99.99,,,-99.99,,2013-03-28 15:20:00,
2013-03-28 15:26:00,39.2,-99.9,28.99,WSW,247,9.0,-999.0,-999,-99.99,,,-99.99,,2013-03-28 15:26:00,
2013-03-28 15:32:00,38.8,-99.9,28.99,South,180,9.0,-999.0,-999,-99.99,,,-99.99,,2013-03-28 15:32:00,
2013-03-28 15:39:00,38.0,-99.9,28.99,SW,225,8.0,-999.0,-999,-99.99,,,-99.99,,2013-03-28 15:39:00,
2013-03-28 15:45:00,38.1,-99.9,28.99,SSE,157,6.0,-999.0,-999,-99.99,,,-99.99,,2013-03-28 15:45:00,
2013-03-28 15:51:00,38.9,-99.9,28.98,SSW,202,9.0,-999.0,-999,-99.99,,,-99.99,,2013-03-28 15:51:00,
2013-03-28 15:58:00,38.2,-99.9,28.99,ESE,112,10.0,-999.0,-999,-99.99,,,-99.99,,2013-03-28 15:58:00,
2013-03-28 16:04:00,37.3,-99.9,28.99,South,180,12.0,-999.0,-999,-99.99,,,-99.99,,2013-03-28 16:04:00,
2013-03-28 16:10:00,36.6,-99.9,28.99,SW,225,10.0,-999.0,-999,-99.99,,,-99.99,,2013-03-28 16:10:00,
2013-03-28 16:16:00,36.3,-99.9,28.99,South,180,10.0,-999.0,-999,-99.99,,,-99.99,,2013-03-28 16:16:00,
2013-03-28 16:23:00,36.5,-99.9,28.99,South,180,12.0,-999.0,-999,-99.99,,,-99.99,,2013-03-28 16:23:00,
2013-03-28 16:31:00,36.7,-99.9,28.99,WSW,247,-999.0,-999.0,-999,-99.99,,,-99.99,,2013-03-28 16:31:00,
2013-03-28 16:38:00,36.3,-99.9,28.99,West,270,-999.0,-999.0,-999,-99.99,,,-99.99,,2013-03-28 16:38:00,
2013-03-28 16:44:00,35.7,-99.9,28.98,SW,225,9.0,-999.0,-999,-99.99,,,-99.99,,2013-03-28 16:44:00,
2013-03-28 16:50:00,35.7,-99.9,28.98,SSE,157,6.0,-999.0,-999,-99.99,,,-99.99,,2013-03-28 16:50:00,
2013-03-28 16:56:00,35.4,-99.9,28.98,SSE,157,10.0,-999.0,-999,-99.99,,,-99.99,,2013-03-28 16:56:00,
2013-03-28 17:03:00,34.7,-99.9,28.99,South,180,10.0,-999.0,-999,-99.99,,,-99.99,,2013-03-28 17:03:00,
2013-03-28 17:09:00,34.6,-99.9,28.99,SSW,202,6.0,-999.0,-999,-99.99,,,-99.99,,2013-03-28 17:09:00,
2013-03-28 17:15:00,34.5,-99.9,28.98,West,270,10.0,-999.0,-999,-99.99,,,-99.99,,2013-03-28 17:15:00,
2013-03-28 17:21:00,33.8,-99.9,28.98,South,180,10.0,-999.0,-999,-99.99,,,-99.99,,2013-03-28 17:21:00,
2013-03-28 17:28:00,33.1,-99.9,28.98,SSW,202,9.0,-999.0,-999,-99.99,,,-99.99,,2013-03-28 17:28:00,
2013-03-28 17:34:00,32.5,-99.9,28.98,SW,225,9.0,-999.0,-999,-99.99,,,-99.99,,2013-03-28 17:34:00,
2013-03-28 17:40:00,31.9,-99.9,28.99,WSW,247,7.0,-999.0,-999,-99.99,,,-99.99,,2013-03-28 17:40:00,
2013-03-28 17:46:00,31.5,-99.9,28.99,SW,225,5.0,-999.0,-999,-99.99,,,-99.99,,2013-03-28 17:46:00,
2013-03-28 17:53:00,31.5,-99.9,28.99,SW,225,5.0,-999.0,-999,-99.99,,,-99.99,,2013-03-28 17:53:00,
2013-03-28 17:59:00,31.7,-99.9,28.99,ESE,112,3.0,-999.0,-999,-99.99,,,-99.99,,2013-03-28 17:59:00,
2013-03-28 18:05:00,31.9,-99.9,28.99,SW,225,3.0,-999.0,-999,-99.99,,,-99.99,,2013-03-28 18:05:00,
2013-03-28 18:11:00,31.9,-99.9,28.99,SW,225,4.0,-999.0,-999,-99.99,,,-99.99,,2013-03-28 18:11:00,
2013-03-28 18:18:00,31.7,-99.9,28.99,SSW,202,5.0,-999.0,-999,-99.99,,,-99.99,,2013-03-28 18:18:00,
2013-03-28 18:24:00,31.3,-99.9,28.99,NNW,337,2.0,-999.0,-999,-99.99,,,-99.99,,2013-03-28 18:24:00,
2013-03-28 18:30:00,30.8,-99.9,29.00,SW,225,2.0,-999.0,-999,-99.99,,,-99.99,,2013-03-28 18:30:00,
2013-03-28 18:37:00,30.2,-99.9,29.00,WSW,247,7.0,-999.0,-999,-99.99,,,-99.99,,2013-03-28 18:37:00,
2013-03-28 18:43:00,29.6,-99.9,29.00,SW,225,4.0,-999.0,-999,-99.99,,,-99.99,,2013-03-28 18:43:00,
2013-03-28 18:49:00,29.1,-99.9,29.01,SE,135,0.0,-999.0,-999,-99.99,,,-99.99,,2013-03-28 18:49:00,
2013-03-28 18:55:00,28.5,-99.9,29.00,NNW,337,0.0,-999.0,-999,-99.99,,,-99.99,,2013-03-28 18:55:00,
2013-03-28 19:02:00,27.8,-99.9,29.01,NNE,22,-999.0,-999.0,-999,-99.99,,,-99.99,,2013-03-28 19:02:00,
2013-03-28 19:08:00,27.4,-99.9,29.01,NNE,22,1.0,-999.0,-999,-99.99,,,-99.99,,2013-03-28 19:08:00,
2013-03-28 19:15:00,27.3,-99.9,29.01,North,0,2.0,-999.0,-999,-99.99,,,-99.99,,2013-03-28 19:15:00,
2013-03-28 19:23:00,26.7,-99.9,29.00,ENE,67,0.0,-999.0,-999,-99.99,,,-99.99,,2013-03-28 19:23:00,
2013-03-28 19:29:00,26.5,-99.9,29.00,NE,45,2.0,-999.0,-999,-99.99,,,-99.99,,2013-03-28 19:29:00,
2013-03-28 19:36:00,26.3,-99.9,29.00,NE,45,3.0,-999.0,-999,-99.99,,,-99.99,,2013-03-28 19:36:00,
2013-03-28 19:42:00,26.1,-99.9,29.00,NNE,22,2.0,-999.0,-999,-99.99,,,-99.99,,2013-03-28 19:42:00,
2013-03-28 19:48:00,26.0,-99.9,29.00,NNE,22,2.0,-999.0,-999,-99.99,,,-99.99,,2013-03-28 19:48:00,
2013-03-28 19:54:00,26.0,-99.9,29.00,NNE,22,0.0,-999.0,-999,-99.99,,,-99.99,,2013-03-28 19:54:00,
2013-03-28 20:01:00,25.8,-99.9,29.00,NNE,22,0.0,-999.0,-999,-99.99,,,-99.99,,2013-03-28 20:01:00,
2013-03-28 20:06:00,25.6,-99.9,29.00,NNE,22,-999.0,-999.0,-999,-99.99,,,-99.99,,2013-03-28 20:06:00,
2013-03-28 20:12:00,25.2,-99.9,28.99,NNE,22,0.0,-999.0,-999,-99.99,,,-99.99,,2013-03-28 20:12:00,
2013-03-28 20:18:00,24.8,-99.9,28.99,NNE,22,0.0,-999.0,-999,-99.99,,,-99.99,,2013-03-28 20:18:00,
2013-03-28 20:24:00,24.4,-99.9,28.99,NNE,22,1.0,-999.0,-999,-99.99,,,-99.99,,2013-03-28 20:24:00,
2013-03-28 20:31:00,24.1,-99.9,28.99,ENE,67,0.0,-999.0,-999,-99.99,,,-99.99,,2013-03-28 20:31:00,
2013-03-28 20:37:00,24.5,-99.9,28.99,NE,45,5.0,-999.0,-999,-99.99,,,-99.99,,2013-03-28 20:37:00,
2013-03-28 20:43:00,25.4,-99.9,28.99,West,270,1.0,-999.0,-999,-99.99,,,-99.99,,2013-03-28 20:43:00,
2013-03-28 20:49:00,25.8,-99.9,28.99,West,270,0.0,-999.0,-999,-99.99,,,-99.99,,2013-03-28 20:49:00,
2013-03-28 20:56:00,26.3,-99.9,28.99,West,270,0.0,-999.0,-999,-99.99,,,-99.99,,2013-03-28 20:56:00,
2013-03-28 21:02:00,26.7,-99.9,28.99,ENE,67,0.0,-999.0,-999,-99.99,,,-99.99,,2013-03-28 21:02:00,
2013-03-28 21:08:00,27.0,-99.9,28.99,ENE,67,0.0,-999.0,-999,-99.99,,,-99.99,,2013-03-28 21:08:00,
2013-03-28 21:14:00,27.5,-99.9,28.99,ENE,67,1.0,-999.0,-999,-99.99,,,-99.99,,2013-03-28 21:14:00,
2013-03-28 21:21:00,27.8,-99.9,28.99,ENE,67,-999.0,-999.0,-999,-99.99,,,-99.99,,2013-03-28 21:21:00,
2013-03-28 21:27:00,28.2,-99.9,28.98,ENE,67,0.0,-999.0,-999,-99.99,,,-99.99,,2013-03-28 21:27:00,
2013-03-28 21:33:00,28.3,-99.9,28.98,SSE,157,0.0,-999.0,-999,-99.99,,,-99.99,,2013-03-28 21:33:00,
2013-03-28 21:39:00,28.3,-99.9,28.98,ENE,67,0.0,-999.0,-999,-99.99,,,-99.99,,2013-03-28 21:39:00,
2013-03-28 21:48:00,28.4,-99.9,28.98,NNE,22,1.0,-999.0,-999,-99.99,,,-99.99,,2013-03-28 21:48:00,
2013-03-28 21:55:00,28.5,-99.9,28.98,NNE,22,2.0,-999.0,-999,-99.99,,,-99.99,,2013-03-28 21:55:00,
2013-03-28 22:05:00,28.7,-99.9,28.98,South,180,1.0,-999.0,-999,-99.99,,,-99.99,,2013-03-28 22:05:00,
2013-03-28 22:12:00,28.7,-99.9,28.98,ENE,67,0.0,-999.0,-999,-99.99,,,-99.99,,2013-03-28 22:12:00,
2013-03-28 22:18:00,28.9,-99.9,28.98,ESE,112,1.0,-999.0,-999,-99.99,,,-99.99,,2013-03-28 22:18:00,
2013-03-28 22:24:00,29.0,-99.9,28.98,WSW,247,1.0,-999.0,-999,-99.99,,,-99.99,,2013-03-28 22:24:00,
2013-03-28 22:30:00,29.0,-99.9,28.98,ENE,67,2.0,-999.0,-999,-99.99,,,-99.99,,2013-03-28 22:30:00,
2013-03-28 22:36:00,29.0,-99.9,28.97,ENE,67,0.0,-999.0,-999,-99.99,,,-99.99,,2013-03-28 22:36:00,
2013-03-28 22:43:00,28.6,-99.9,28.97,West,270,0.0,-999.0,-999,-99.99,,,-99.99,,2013-03-28 22:43:00,
2013-03-28 22:49:00,28.0,-99.9,28.97,NE,45,0.0,-999.0,-999,-99.99,,,-99.99,,2013-03-28 22:49:00,
2013-03-28 22:55:00,27.7,-99.9,28.97,ENE,67,2.0,-999.0,-999,-99.99,,,-99.99,,2013-03-28 22:55:00,
2013-03-28 23:01:00,27.3,-99.9,28.97,ENE,67,0.0,-999.0,-999,-99.99,,,-99.99,,2013-03-28 23:01:00,
2013-03-28 23:08:00,27.2,-99.9,28.97,NE,45,0.0,-999.0,-999,-99.99,,,-99.99,,2013-03-28 23:08:00,
2013-03-28 23:14:00,27.0,-99.9,28.97,NE,45,2.0,-999.0,-999,-99.99,,,-99.99,,2013-03-28 23:14:00,
2013-03-28 23:20:00,27.2,-99.9,28.97,NE,45,0.0,-999.0,-999,-99.99,,,-99.99,,2013-03-28 23:20:00,
2013-03-28 23:26:00,27.2,-99.9,28.97,ESE,112,0.0,-999.0,-999,-99.99,,,-99.99,,2013-03-28 23:26:00,
2013-03-28 23:33:00,27.2,-99.9,28.97,NNW,337,1.0,-999.0,-999,-99.99,,,-99.99,,2013-03-28 23:33:00,
2013-03-28 23:39:00,27.4,-99.9,28.97,SW,225,0.0,-999.0,-999,-99.99,,,-99.99,,2013-03-28 23:39:00,
2013-03-28 23:45:00,27.6,-99.9,28.96,NNW,337,0.0,-999.0,-999,-99.99,,,-99.99,,2013-03-28 23:45:00,
2013-03-28 23:54:00,27.4,-99.9,28.96,WSW,247,0.0,-999.0,-999,-99.99,,,-99.99,,2013-03-28 23:54:00,